Zurück zum Katalog

STARLINK-35227

AktivKommunikationSSO
NORAD 65654·PAYLOAD·🇺🇸 United States

Gestartet Sep 19, 2025 von Vandenberg Space Force Base

Loading…

Nächste Überflüge (nächste 24 Stunden)

TLE

AktuellSource: CelesTrak SupGP

Epoche: Sep 14, 2026, 15:50 UTC

1 65654C 25211C   26257.66020833 -.00017782  00000+0 -55185-3 0  2577
2 65654  97.2833 297.9182 0001137 106.8269 289.6302 15.33456772    16

Verfolge STARLINK-35227 in Echtzeit mit AllMySat

Download on the App Store